Location: Maiden
(35.5760°N, 81.2120°W)
Time: 19:05:56
(UTC-04:00)

Cosmos 1626 Rocket - Pass Details

Date: 14 June 2018
Orbit: 604 x 630 km, 82.5° (Epoch: 18 September)

Event Time Altitude Azimuth Distance (km) Brightness Sun altitude
Exits shadow 21:20:04 - 159° (SSE) 2,473 6.1 -7.4°
Reaches altitude 10° 21:21:21 10° 152° (SSE) 2,001 5.6 -7.6°
Maximum altitude 21:25:16 31° 90° (E) 1,103 4.4 -8.2°
Drops below altitude 10° 21:29:12 10° 29° (NNE) 2,013 6.3 -8.9°
Sets 21:31:38 0° 19° (NNE) 2,923 7.3 -9.3°
